NKS710 KEYW-KFLL

Flight info

Callsign NKS710
Flight time 0h 56m
Altitude 15000
Route BUFTT1 BUFTT PYREX BHHIA3
Aircraft A21N/M-SDE2E3FGHIRWXY/LB1

Departure

Time 2026-05-03 22:31
Airport Key West International Airport (KEYW)

Arrival

Time 2026-05-03 23:28
Airport Fort Lauderdale Hollywood International Airport (KFLL)
Time Latitude Longitude Altitude Speed Heading
2026-05-03 22:10 24.55443 -81.75460 16 ft 0 kts 180°
2026-05-03 22:21 24.55447 -81.75460 15 ft 2 kts 178°
2026-05-03 22:21 24.55463 -81.75460 17 ft 2 kts 179°
2026-05-03 22:22 24.55479 -81.75458 17 ft 2 kts 210°
2026-05-03 22:22 24.55489 -81.75447 17 ft 0 kts 255°
2026-05-03 22:22 24.55488 -81.75464 16 ft 2 kts 271°
2026-05-03 22:23 24.55488 -81.75466 17 ft 0 kts 271°
2026-05-03 22:26 24.55489 -81.75487 15 ft 6 kts 273°
2026-05-03 22:26 24.55512 -81.75518 15 ft 5 kts 324°
2026-05-03 22:26 24.55529 -81.75552 17 ft 6 kts 283°
2026-05-03 22:26 24.55531 -81.75607 15 ft 10 kts 269°
2026-05-03 22:27 24.55529 -81.75724 15 ft 18 kts 269°
2026-05-03 22:27 24.55527 -81.75858 15 ft 18 kts 270°
2026-05-03 22:27 24.55527 -81.75995 15 ft 18 kts 269°
2026-05-03 22:27 24.55524 -81.76134 15 ft 18 kts 269°
2026-05-03 22:28 24.55524 -81.76273 15 ft 18 kts 268°
2026-05-03 22:28 24.55522 -81.76413 15 ft 18 kts 269°
2026-05-03 22:28 24.55521 -81.76542 15 ft 16 kts 269°
2026-05-03 22:28 24.55519 -81.76611 15 ft 6 kts 269°
2026-05-03 22:29 24.55520 -81.76622 15 ft 0 kts 281°
2026-05-03 22:30 24.55523 -81.76631 15 ft 7 kts 292°
2026-05-03 22:30 24.55599 -81.76630 14 ft 15 kts 65°
2026-05-03 22:31 24.55610 -81.76422 13 ft 49 kts 89°
2026-05-03 22:31 24.55615 -81.75840 16 ft 105 kts 89°
2026-05-03 22:31 24.55612 -81.74764 123 ft 165 kts 90°
2026-05-03 22:31 24.55710 -81.73511 649 ft 161 kts 80°
2026-05-03 22:32 24.55789 -81.72280 1155 ft 165 kts 83°
2026-05-03 22:32 24.56287 -81.71176 1573 ft 167 kts 33°
2026-05-03 22:32 24.57435 -81.70906 1828 ft 183 kts 343°
2026-05-03 22:32 24.58653 -81.71488 2065 ft 202 kts 336°
2026-05-03 22:33 24.60099 -81.71815 2256 ft 224 kts 351°
2026-05-03 22:33 24.61755 -81.71938 2399 ft 251 kts 356°
2026-05-03 22:33 24.63556 -81.71965 2776 ft 266 kts 358°
2026-05-03 22:33 24.65422 -81.71951 2991 ft 269 kts 358°
2026-05-03 22:34 24.67296 -81.71940 2993 ft 269 kts 358°
2026-05-03 22:34 24.69172 -81.71915 2994 ft 270 kts 359°
2026-05-03 22:34 24.71029 -81.71873 3009 ft 271 kts
2026-05-03 22:34 24.72806 -81.71314 3245 ft 278 kts 33°
2026-05-03 22:35 24.74227 -81.69851 3990 ft 282 kts 47°
2026-05-03 22:35 24.75085 -81.68776 4470 ft 284 kts 48°
2026-05-03 22:35 24.76392 -81.67124 5094 ft 288 kts 48°
2026-05-03 22:35 24.77732 -81.65471 5730 ft 291 kts 47°
2026-05-03 22:36 24.79100 -81.63821 6384 ft 293 kts 46°
2026-05-03 22:36 24.80947 -81.61631 7240 ft 297 kts 46°
2026-05-03 22:36 24.81905 -81.60503 7692 ft 300 kts 45°
2026-05-03 22:36 24.83962 -81.58480 8592 ft 300 kts 32°
2026-05-03 22:37 24.85141 -81.57617 9031 ft 302 kts 30°
2026-05-03 22:37 24.87515 -81.55994 9905 ft 305 kts 28°
2026-05-03 22:37 24.88747 -81.55161 10257 ft 311 kts 28°
2026-05-03 22:37 24.90637 -81.53884 10583 ft 328 kts 28°
2026-05-03 22:38 24.92627 -81.52532 10863 ft 344 kts 28°
2026-05-03 22:38 24.94705 -81.51115 11080 ft 358 kts 29°
2026-05-03 22:38 24.96834 -81.49661 11298 ft 371 kts 29°
2026-05-03 22:38 24.99047 -81.48149 11732 ft 377 kts 29°
2026-05-03 22:39 25.01280 -81.46619 12292 ft 376 kts 29°
2026-05-03 22:39 25.03496 -81.45094 13246 ft 365 kts 29°
2026-05-03 22:39 25.05566 -81.43667 14123 ft 345 kts 28°
2026-05-03 22:39 25.07561 -81.42294 14688 ft 335 kts 28°
2026-05-03 22:40 25.09544 -81.40934 14962 ft 337 kts 28°
2026-05-03 22:40 25.11544 -81.39565 15002 ft 339 kts 28°
2026-05-03 22:40 25.13550 -81.38189 15003 ft 340 kts 28°
2026-05-03 22:40 25.15559 -81.36809 15004 ft 340 kts 28°
2026-05-03 22:41 25.17569 -81.35428 15004 ft 340 kts 28°
2026-05-03 22:41 25.19578 -81.34047 15004 ft 340 kts 28°
2026-05-03 22:41 25.21583 -81.32655 15004 ft 341 kts 30°
2026-05-03 22:41 25.23493 -81.31085 15005 ft 343 kts 35°
2026-05-03 22:42 25.25342 -81.29418 15004 ft 343 kts 36°
2026-05-03 22:42 25.27179 -81.27733 15005 ft 343 kts 36°
2026-05-03 22:42 25.29015 -81.26046 15006 ft 343 kts 36°
2026-05-03 22:42 25.30853 -81.24359 15007 ft 343 kts 36°
2026-05-03 22:43 25.32689 -81.22676 15007 ft 343 kts 36°
2026-05-03 22:43 25.34528 -81.20990 15007 ft 343 kts 36°
2026-05-03 22:43 25.36365 -81.19306 15007 ft 343 kts 36°
2026-05-03 22:43 25.38204 -81.17620 15015 ft 344 kts 36°
2026-05-03 22:44 25.40046 -81.15932 15009 ft 345 kts 36°
2026-05-03 22:44 25.41893 -81.14237 15007 ft 345 kts 36°
2026-05-03 22:44 25.43742 -81.12544 15006 ft 345 kts 35°
2026-05-03 22:44 25.45770 -81.11210 15006 ft 335 kts 13°
2026-05-03 22:45 25.48008 -81.10821 15007 ft 321 kts 350°
2026-05-03 22:45 25.50110 -81.11411 15007 ft 307 kts 326°
2026-05-03 22:45 25.51765 -81.12812 15011 ft 298 kts 308°
2026-05-03 22:45 25.53108 -81.14550 15008 ft 297 kts 304°
2026-05-03 22:46 25.54393 -81.16353 15009 ft 298 kts 302°
2026-05-03 22:46 25.55348 -81.18306 15002 ft 289 kts 282°
2026-05-03 22:46 25.55460 -81.20485 15006 ft 284 kts 258°
2026-05-03 22:46 25.54693 -81.22480 15007 ft 286 kts 234°
2026-05-03 22:47 25.53182 -81.23922 15007 ft 294 kts 211°
2026-05-03 22:47 25.51192 -81.24528 15007 ft 305 kts 187°
2026-05-03 22:47 25.49045 -81.24320 15007 ft 314 kts 175°
2026-05-03 22:47 25.46890 -81.23841 15004 ft 317 kts 174°
2026-05-03 22:48 25.44736 -81.23319 15004 ft 318 kts 173°
2026-05-03 22:48 25.42577 -81.22792 15004 ft 318 kts 173°
2026-05-03 22:48 25.40421 -81.22265 15004 ft 317 kts 173°
2026-05-03 22:48 25.38263 -81.21737 15004 ft 317 kts 173°
2026-05-03 22:49 25.36105 -81.21217 15000 ft 318 kts 173°
2026-05-03 22:49 25.33945 -81.20708 15004 ft 318 kts 173°
2026-05-03 22:49 25.31779 -81.20201 14995 ft 318 kts 173°
2026-05-03 22:49 25.29619 -81.19692 14986 ft 318 kts 173°
2026-05-03 22:50 25.27457 -81.19185 14987 ft 318 kts 173°
2026-05-03 22:50 25.25296 -81.18679 14986 ft 318 kts 173°
2026-05-03 22:50 25.23134 -81.18173 14985 ft 318 kts 173°
2026-05-03 22:50 25.20974 -81.17667 14985 ft 318 kts 173°
2026-05-03 22:51 25.18812 -81.17160 14988 ft 318 kts 173°
2026-05-03 22:51 25.16651 -81.16653 14988 ft 318 kts 173°
2026-05-03 22:51 25.14487 -81.16148 14988 ft 318 kts 173°
2026-05-03 22:51 25.12322 -81.15908 14984 ft 308 kts 192°
2026-05-03 22:52 25.10335 -81.16584 14989 ft 295 kts 215°
2026-05-03 22:52 25.08853 -81.18076 14988 ft 288 kts 239°
2026-05-03 22:52 25.08127 -81.20099 14989 ft 286 kts 263°
2026-05-03 22:52 25.08288 -81.22276 14987 ft 290 kts 286°
2026-05-03 22:53 25.09317 -81.24200 14988 ft 298 kts 310°
2026-05-03 22:53 25.11046 -81.25506 14988 ft 310 kts 334°
2026-05-03 22:53 25.13182 -81.26012 14992 ft 319 kts 350°
2026-05-03 22:53 25.15417 -81.26137 14988 ft 323 kts 353°
2026-05-03 22:54 25.17671 -81.26199 14988 ft 324 kts 353°
2026-05-03 22:54 25.19927 -81.26253 14988 ft 324 kts 353°
2026-05-03 22:54 25.22183 -81.26307 14988 ft 324 kts 353°
2026-05-03 22:54 25.24440 -81.26361 14988 ft 325 kts 353°
2026-05-03 22:55 25.26698 -81.26414 14988 ft 324 kts 353°
2026-05-03 22:55 25.28952 -81.26465 14988 ft 324 kts 353°
2026-05-03 22:55 25.31211 -81.26519 14988 ft 324 kts 353°
2026-05-03 22:55 25.33466 -81.26572 14988 ft 324 kts 353°
2026-05-03 22:56 25.35723 -81.26624 14988 ft 325 kts 353°
2026-05-03 22:56 25.37947 -81.26676 14988 ft 324 kts 353°
2026-05-03 22:56 25.40208 -81.26719 14991 ft 325 kts 353°
2026-05-03 22:56 25.42472 -81.26753 14989 ft 325 kts 353°
2026-05-03 22:57 25.44733 -81.26786 14989 ft 325 kts 353°
2026-05-03 22:57 25.46996 -81.26819 14989 ft 325 kts 353°
2026-05-03 22:57 25.49259 -81.26851 14985 ft 325 kts 353°
2026-05-03 22:57 25.51523 -81.26885 14991 ft 325 kts 353°
2026-05-03 22:58 25.53786 -81.26920 14991 ft 325 kts 353°
2026-05-03 22:58 25.56048 -81.26952 14987 ft 325 kts 353°
2026-05-03 22:58 25.58310 -81.26986 14991 ft 325 kts 353°
2026-05-03 22:58 25.60573 -81.27019 14988 ft 325 kts 353°
2026-05-03 22:59 25.62840 -81.27053 14994 ft 325 kts 353°
2026-05-03 22:59 25.65102 -81.27088 14994 ft 325 kts 353°
2026-05-03 22:59 25.67364 -81.27123 14994 ft 325 kts 353°
2026-05-03 22:59 25.69628 -81.27156 15005 ft 325 kts 353°
2026-05-03 23:00 25.71893 -81.27175 14995 ft 326 kts 353°
2026-05-03 23:00 25.74162 -81.27188 14998 ft 326 kts 353°
2026-05-03 23:00 25.76430 -81.27201 15001 ft 326 kts 353°
2026-05-03 23:00 25.78700 -81.27215 15002 ft 326 kts 353°
2026-05-03 23:01 25.80973 -81.27229 15005 ft 326 kts 353°
2026-05-03 23:01 25.83242 -81.27245 15002 ft 326 kts 353°
2026-05-03 23:01 25.85509 -81.27261 15002 ft 326 kts 353°
2026-05-03 23:01 25.87780 -81.27279 15002 ft 326 kts 353°
2026-05-03 23:02 25.90050 -81.27296 15001 ft 326 kts 353°
2026-05-03 23:02 25.92320 -81.27313 15002 ft 326 kts 353°
2026-05-03 23:02 25.94589 -81.27329 15002 ft 326 kts 353°
2026-05-03 23:02 25.96857 -81.27347 15002 ft 326 kts 353°
2026-05-03 23:03 25.99126 -81.27365 15001 ft 326 kts 353°
2026-05-03 23:03 26.01399 -81.27376 15015 ft 327 kts 353°
2026-05-03 23:03 26.03674 -81.27378 15010 ft 327 kts 353°
2026-05-03 23:03 26.05947 -81.27380 15008 ft 327 kts 353°
2026-05-03 23:04 26.08222 -81.27381 15009 ft 327 kts 353°
2026-05-03 23:04 26.10496 -81.27382 15009 ft 327 kts 353°
2026-05-03 23:04 26.12768 -81.27383 15015 ft 327 kts 353°
2026-05-03 23:04 26.15047 -81.27385 15016 ft 327 kts 353°
2026-05-03 23:05 26.17322 -81.27386 15016 ft 327 kts 353°
2026-05-03 23:05 26.19595 -81.27387 15018 ft 327 kts 353°
2026-05-03 23:05 26.21870 -81.27388 15016 ft 327 kts 353°
2026-05-03 23:05 26.24108 -81.27389 15023 ft 327 kts 353°
2026-05-03 23:06 26.26382 -81.27391 15023 ft 327 kts 353°
2026-05-03 23:06 26.28653 -81.27392 15022 ft 326 kts 353°
2026-05-03 23:06 26.30931 -81.27269 15026 ft 333 kts
2026-05-03 23:06 26.33108 -81.26301 15027 ft 344 kts 29°
2026-05-03 23:07 26.34859 -81.24456 15024 ft 352 kts 53°
2026-05-03 23:07 26.35905 -81.21993 15023 ft 354 kts 77°
2026-05-03 23:07 26.36087 -81.19283 15026 ft 352 kts 101°
2026-05-03 23:07 26.35385 -81.16716 15008 ft 342 kts 124°
2026-05-03 23:08 26.33929 -81.14697 15021 ft 329 kts 148°
2026-05-03 23:08 26.31985 -81.13484 15020 ft 316 kts 167°
2026-05-03 23:08 26.29888 -81.12787 15007 ft 314 kts 172°
2026-05-03 23:08 26.27762 -81.12193 15012 ft 315 kts 173°
2026-05-03 23:09 26.25628 -81.11619 15022 ft 316 kts 173°
2026-05-03 23:09 26.23491 -81.11044 15017 ft 316 kts 173°
2026-05-03 23:09 26.21353 -81.10467 15014 ft 316 kts 173°
2026-05-03 23:09 26.19214 -81.09894 15014 ft 316 kts 173°
2026-05-03 23:10 26.17078 -81.09321 15015 ft 316 kts 173°
2026-05-03 23:10 26.14937 -81.08747 15014 ft 316 kts 173°
2026-05-03 23:10 26.12800 -81.08173 15016 ft 316 kts 173°
2026-05-03 23:10 26.10667 -81.07601 14973 ft 315 kts 173°
2026-05-03 23:11 26.08539 -81.07032 14558 ft 314 kts 173°
2026-05-03 23:11 26.06423 -81.06471 14111 ft 312 kts 173°
2026-05-03 23:11 26.04316 -81.05920 13653 ft 311 kts 173°
2026-05-03 23:11 26.02215 -81.05378 13175 ft 309 kts 173°
2026-05-03 23:12 26.00121 -81.05040 12693 ft 300 kts 186°
2026-05-03 23:12 25.98064 -81.05192 12216 ft 294 kts 192°
2026-05-03 23:12 25.96046 -81.05483 11760 ft 292 kts 193°
2026-05-03 23:12 25.94046 -81.05799 11316 ft 290 kts 193°
2026-05-03 23:13 25.92058 -81.06122 10874 ft 288 kts 193°
2026-05-03 23:13 25.90085 -81.06448 10439 ft 286 kts 193°
2026-05-03 23:13 25.88125 -81.06782 10114 ft 283 kts 193°
2026-05-03 23:13 25.86189 -81.07109 9720 ft 281 kts 193°
2026-05-03 23:14 25.84254 -81.07417 9254 ft 282 kts 188°
2026-05-03 23:14 25.82282 -81.07322 8787 ft 288 kts 173°
2026-05-03 23:14 25.80411 -81.06503 8396 ft 293 kts 150°
2026-05-03 23:14 25.78967 -81.04899 7962 ft 299 kts 124°
2026-05-03 23:15 25.78298 -81.02715 7496 ft 304 kts 95°
2026-05-03 23:15 25.78641 -81.00430 7156 ft 302 kts 62°
2026-05-03 23:15 25.80024 -80.98801 7008 ft 290 kts 30°
2026-05-03 23:15 25.81710 -80.97601 6994 ft 294 kts 30°
2026-05-03 23:16 25.83452 -80.96386 7010 ft 297 kts 28°
2026-05-03 23:16 25.85220 -80.95189 7005 ft 297 kts 28°
2026-05-03 23:16 25.86992 -80.94011 7015 ft 297 kts 27°
2026-05-03 23:16 25.88782 -80.92873 7009 ft 296 kts 26°
2026-05-03 23:17 25.90577 -80.91751 7011 ft 296 kts 26°
2026-05-03 23:17 25.92377 -80.90636 7013 ft 296 kts 26°
2026-05-03 23:17 25.94178 -80.89526 7013 ft 296 kts 26°
2026-05-03 23:17 25.95979 -80.88419 7012 ft 296 kts 26°
2026-05-03 23:18 25.97779 -80.87314 7021 ft 295 kts 26°
2026-05-03 23:18 25.99557 -80.86171 7016 ft 296 kts 32°
2026-05-03 23:18 26.01006 -80.84552 7016 ft 298 kts 58°
2026-05-03 23:18 26.01733 -80.82405 7023 ft 298 kts 77°
2026-05-03 23:19 26.02127 -80.80141 6986 ft 297 kts 81°
2026-05-03 23:19 26.02466 -80.77877 6616 ft 297 kts 81°
2026-05-03 23:19 26.02803 -80.75617 6379 ft 296 kts 81°
2026-05-03 23:19 26.03146 -80.73364 6238 ft 295 kts 81°
2026-05-03 23:20 26.03495 -80.71116 6115 ft 295 kts 80°
2026-05-03 23:20 26.03846 -80.68874 5993 ft 294 kts 80°
2026-05-03 23:20 26.04198 -80.66635 5874 ft 293 kts 80°
2026-05-03 23:20 26.04549 -80.64408 5755 ft 292 kts 80°
2026-05-03 23:21 26.04899 -80.62184 5628 ft 291 kts 80°
2026-05-03 23:21 26.05248 -80.59973 5513 ft 290 kts 80°
2026-05-03 23:21 26.05599 -80.57762 5400 ft 290 kts 80°
2026-05-03 23:21 26.05938 -80.55561 5264 ft 288 kts 80°
2026-05-03 23:22 26.06703 -80.51185 5027 ft 290 kts 83°
2026-05-03 23:22 26.06814 -80.48939 4558 ft 291 kts 90°
2026-05-03 23:22 26.06796 -80.46721 4061 ft 282 kts 91°
2026-05-03 23:23 26.06767 -80.44596 3644 ft 272 kts 91°
2026-05-03 23:23 26.06734 -80.42500 3267 ft 263 kts 91°
2026-05-03 23:23 26.06705 -80.40504 2986 ft 251 kts 90°
2026-05-03 23:23 26.06697 -80.38657 3001 ft 237 kts 90°
2026-05-03 23:24 26.06703 -80.36837 3019 ft 234 kts 89°
2026-05-03 23:24 26.06707 -80.35074 3017 ft 223 kts 90°
2026-05-03 23:24 26.06706 -80.33372 2986 ft 219 kts 90°
2026-05-03 23:24 26.06694 -80.31691 2787 ft 217 kts 90°
2026-05-03 23:25 26.06675 -80.30022 2477 ft 215 kts 90°
2026-05-03 23:25 26.06666 -80.28376 2173 ft 211 kts 89°
2026-05-03 23:25 26.06661 -80.27274 1986 ft 210 kts 90°
2026-05-03 23:25 26.06650 -80.25663 1715 ft 204 kts 89°
2026-05-03 23:26 26.06640 -80.24143 1453 ft 191 kts 89°
2026-05-03 23:26 26.06631 -80.22682 1204 ft 187 kts 88°
2026-05-03 23:26 26.06623 -80.21238 957 ft 187 kts 88°
2026-05-03 23:26 26.06614 -80.19795 722 ft 183 kts 88°
2026-05-03 23:27 26.06604 -80.18466 507 ft 164 kts 88°
2026-05-03 23:27 26.06596 -80.17271 314 ft 147 kts 85°
2026-05-03 23:27 26.06591 -80.16170 104 ft 136 kts 87°
2026-05-03 23:27 26.06590 -80.15156 24 ft 117 kts 91°
2026-05-03 23:28 26.06580 -80.14460 47 ft 62 kts 92°
2026-05-03 23:28 26.06634 -80.14236 55 ft 12 kts 27°
2026-05-03 23:28 26.06669 -80.14247 51 ft 6 kts 294°
2026-05-03 23:28 26.06679 -80.14303 52 ft 7 kts 265°
2026-05-03 23:29 26.06677 -80.14358 52 ft 7 kts 270°
2026-05-03 23:29 26.06677 -80.14422 49 ft 11 kts 271°
2026-05-03 23:29 26.06677 -80.14513 46 ft 11 kts 269°
2026-05-03 23:29 26.06676 -80.14616 40 ft 12 kts 270°
2026-05-03 23:30 26.06677 -80.14686 34 ft 12 kts 270°
2026-05-03 23:30 26.06678 -80.14780 27 ft 14 kts 271°
2026-05-03 23:30 26.06694 -80.14891 23 ft 15 kts 302°
2026-05-03 23:30 26.06762 -80.14886 18 ft 10 kts 70°
2026-05-03 23:31 26.06767 -80.14797 18 ft 16 kts 89°
2026-05-03 23:31 26.06767 -80.14634 18 ft 24 kts 91°
2026-05-03 23:31 26.06772 -80.14452 19 ft 23 kts 92°
2026-05-03 23:31 26.06790 -80.14316 21 ft 15 kts 45°
2026-05-03 23:32 26.06863 -80.14297 19 ft 9 kts
2026-05-03 23:32 26.06878 -80.14297 19 ft 0 kts